Погода в Эс-Сувейде

Сирия     32°41′59″N   36°34′00″E
темп.,
°C
ветер,
м/с
пор.,
м/с
влажн.,
%
обл.,
%
осадки,
мм/ч
давл.,
гПа
погр.,
м
26 февраля, пт
пт2623:00+9ю11850 0.0 102222
02:00+8ссв11850 0.0 102123
05:00+7ююв11820 0.0 102122
08:00+11ю11590 0.0 1022256
11:00+14зюз32440 0.0 10211052
14:00+15з32390 0.0 10191448
17:00+15зюз21400 0.0 1019943
20:00+11с12650 0.0 101939
27 февраля, сб
сб2723:00+11вюв12580 0.0 101923
02:00+10вюв23520 0.0 101825
05:00+8юв11560 0.0 101822
08:00+12ю23430 0.0 1018296
11:00+16юз43320 0.0 10171512
14:00+17зюз43280 0.0 10152165
17:00+15з43320 0.0 1014947
20:00+12с12520 0.0 101523
28 февраля, вс
вс2823:00+11всв22460 0.0 101522
02:00+10всв12480 0.0 101422
05:00+8с12530 0.0 101422
08:00+12юз11390 0.0 1015163
11:00+14зюз44400 0.0 1015938
14:00+15з76380 0.0 10131270
17:00+12з67630 0.0 1014699
20:00+9юз45830 0.0 1016419
1 марта, пн
пн123:00+8юз45897 0.0 1017411
02:00+7ююз349133 0.0 1017283
05:00+6юз349068 0.0 1017273
08:00+7юз358157 0.1 1018557
11:00+10зюз456789 0.1 1018872
14:00+11зюз676395 0.1 10161089
17:00+10зюз687353 0.2 1017892
20:00+8юз369131 0.3 1018308
2 марта, вт
вт223:00+7юз349137 0.1 1019204
02:00+6ю349122 0.1 1018116
05:00+6ю34894 0.0 1018115
08:00+8ююз478137 0.1 1019509
11:00+11юз676858 0.1 10181007
14:00+12зюз896477 0.6 10161079
17:00+10зюз9117675 0.9 10171069
20:00+7зюз7109075 1.3 1018726